Location: Waco, TX
(31.5480°N, 97.1670°W)
Time: 13:50:51

ISS - Pass Details

Date: 14 March 2018
Orbit: 403 x 406 km, 51.6° (Epoch: 21 March)

Event Time Altitude Azimuth Distance (km) Brightness Sun altitude
Rises 08:40:25 0° 315° (NW) 2,321 -0.5 12.0°
Reaches altitude 10° 08:42:30 10° 315° (NW) 1,458 -1.5 12.4°
Maximum altitude 08:45:46 89° 48° (NE) 406 -3.6 13.1°
Drops below altitude 10° 08:49:01 10° 136° (SE) 1,449 0.1 13.8°
Sets 08:51:05 0° 136° (SE) 2,304 1.0 14.2°
